Location: Banff
(51.1667°N, 115.5667°W)
Time: 09:08:33
(UTC+00:00)

Envisat - Pass Details

Date: 01 December 2022
Orbit: 763 x 765 km, 98.2° (Epoch: 28 January)

Event Time Altitude Azimuth Distance (km) Brightness Sun altitude
Rises 13:53:20 0° 4° (N) 3,247 6.1 -13.5°
Reaches altitude 10° 13:56:24 10° 344° (NNW) 2,316 5.2 -13.1°
Maximum altitude 13:59:32 17° 306° (NW) 1,885 4.4 -12.6°
Enters shadow 13:59:41 17° 304° (NW) 1,886 4.4 -12.6°
